This demonstration page uses our WeatherBlox Daily Observations layout. Learn more.

39.29038, -76.61219

Hourly Observations for April 6, 2018

Temp ( °F °C ) Dew Point ( °F °C ) Humidity (%) Winds ( mph kmh ) Pressure ( in mb ) Visibility ( mi km ) Precip ( " mm )
12:54 am 00:54 undefined 47 8.3 28 -2.2 48 48 undefined N/A 30.14 1021 N/A 0 0
1:54 am 01:54 undefined 47 8.3 29 -1.7 50 50 undefined N/A 30.14 1021 N/A 0 0
2:54 am 02:54 undefined 47 8.3 29 -1.7 50 50 undefined N/A 30.14 1021 N/A 0 0
3:54 am 03:54 undefined 47 8.3 31 -0.6 54 54 undefined N/A 30.11 1020 N/A 0 0
4:54 am 04:54 undefined 46 7.8 33 0.6 61 61 undefined N/A 30.08 1019 N/A 0 0
5:54 am 05:54 undefined 46 7.8 39 3.9 77 77 undefined N/A 30.07 1018 N/A 0 0
6:54 am 06:54 undefined 45 7.2 38 3.3 77 77 undefined N/A 30.04 1017 N/A 0 0
7:54 am 07:54 undefined 44 6.7 37 2.8 76 76 undefined N/A 30.03 1017 N/A 0 0
8:54 am 08:54 undefined 45 7.2 38 3.3 77 77 undefined N/A 30 1016 N/A 0 0
9:54 am 09:54 undefined 47 8.3 40 4.4 77 77 undefined N/A 29.98 1015 N/A 0 0
10:54 am 10:54 undefined 51 10.6 34 1.1 52 52 undefined N/A 29.97 1015 N/A 0 0
11:54 am 11:54 undefined 54 12.2 31 -0.6 42 42 undefined N/A 29.94 1014 N/A 0 0
12:54 pm 12:54 undefined 57 13.9 29 -1.7 34 34 undefined N/A 29.9 1013 N/A 0 0
1:54 pm 13:54 undefined 62 16.7 29 -1.7 29 29 undefined N/A 29.88 1012 N/A 0 0
2:54 pm 14:54 undefined 66 18.9 28 -2.2 24 24 undefined N/A 29.8 1009 N/A 0 0
3:54 pm 15:54 undefined 71 21.7 28 -2.2 20 20 undefined N/A 29.74 1007 N/A 0 0
4:54 pm 16:54 undefined 72 22.2 26 -3.3 18 18 undefined N/A 29.71 1006 N/A 0 0
5:54 pm 17:54 undefined 71 21.7 26 -3.3 19 19 undefined N/A 29.7 1006 N/A 0 0
6:54 pm 18:54 undefined 69 20.6 28 -2.2 22 22 undefined N/A 29.68 1005 N/A 0 0
7:54 pm 19:54 undefined 68 20 28 -2.2 22 22 undefined N/A 29.67 1005 N/A 0 0
8:54 pm 20:54 undefined 67 19.4 28 -2.2 23 23 undefined N/A 29.67 1005 N/A 0 0
9:54 pm 21:54 undefined 66 18.9 30 -1.1 26 26 undefined N/A 29.67 1005 N/A 0 0
10:54 pm 22:54 undefined 66 18.9 33 0.6 29 29 undefined N/A 29.65 1004 N/A 0 0
11:54 pm 23:54 undefined 66 18.9 34 1.1 30 30 undefined N/A 29.66 1005 N/A 0 0

Powered by AerisWeather